STARLINK-37088

Last updated on Sun Apr 12 2026 00:02:08 GMT+0000 (Coordinated Universal Time)

1 68322U 26059B 26101.50232064 .00134981 00000+0 67504-3 0 9995 2 68322 53.1577 198.4300 0001383 105.0148 255.1028 15.80928842 3160
UTC large
Height (km)
Speed (km/s)
/
Latitude / Longitude
Inclination (degrees)
Orbital Period (minutes)
Azimuth
Elevation
Range (km)
Doppler Factor

Next 0 passes for location: London (51.5072 / 0.1276)

Sorry there are no passes over London.
STARLINK-37088